Погода Шамахы

Погода Шамахы : погода сейчас, прогноз погоды и архив. Всё, что Вы хотите узнать о погоде Шамахы!

Поиск расширенной информации на нашем сайте:

Другие новости

Новости СМИ2

Главная страница сайта

Новости сайта

02.10.2013

Напоминаем, что на нашем новом сайте вы можете получить высокодетализированные прогнозы погоды по пунктам России, СНГ и мира (включающие важные для авиации метеовеличины, такие как направление и скорость ветра, видимость, явления погоды, количество и форма облачности, нижняя и верхняя граница облачности), а также ознакомиться с разнообразными материалами по авиационной метеорологии и подборкой полезных ссылок на эту тему.

Сайт Метеоцентр.Азия посвящён разработке технологий оптимизации авиаметеорологического обслуживания, включая проектирование и перспективное создание нескольких автоматизированных авиаметеорологических систем:
- система выпуска высокодетальных прогностических карт явлений погоды для нижнего воздушного пространства по России и ближнему зарубежью;
- система верификации прогнозов TAF (выпускаемых синоптиками официальных АМСГ РФ и ближнего зарубежья) и AUTOTAF (выпускаемых сайтом Метеоцентр.Азия) - выявление ошибок, онлайн-сопоставление с фактической погодой METAR, автоматическое внесение коррективов в прогнозы при резком отклонении фактической погоды от прогноза, подсчёт оправдываемости прогнозов по элементам и в целом;
- система обработки, анализа и отображения авиаметеорологической информации для применения провайдерами метеорологической информации.


Погода Шамахы - сегодня

Время (UTC), дата Ветер
(°,м/с) 
Видим.   Явления Облачность Т
(°С)
Тd
(°С)
f(%) Тe
(°С)
Pmin
(гПа)
dP
(гПа)
Po
(мм)
O2
(г/м3)
Тmin Tmax R s Состояние
почвы
03 24.04.17 200 (Ю) 20000 м    5/0 верхняя 
[Ci fib]
+10.5 +7.1 79 +12  1010.1  0.3  685  264           
06 24.04.17 210 (ЮЗ) 20000 м    10/8 600 м 
[Sc]
+14.2 +10.2 77 +18  1010.1  686  261           
09 24.04.17 180 (Ю) 20000 м    8/0 средняя 
[Ac trans]
+15.4 +9.4 67 +18  1011.6  1.5  687  260           
12 24.04.17 190 (Ю) 20000 м    10/10 600 м 
[Sc]
+12.4 +7 70 +13  1014.1  1.3  688  264           
15 24.04.17 230 (ЮЗ) 20000 м    10/10 600 м 
[Sc]
+10.4 +7 79 +10  1016.7  1.9  690  266           
18 24.04.17 230 (ЮЗ) 20000 м    10/10 600 м 
[Sc]
+8.4 +5.8 84 +7  1018.7  1.2  691  269    +15.7       
21 24.04.17 250 (З) 20000 м    10/10 600 м 
[Sc]
+8 +4.3 77 +6  1021.1  1.7  692  270           
00 25.04.17 290 (З) 20000 м    10/10 600 м 
[Sc]
+7.6 +4.1 78 +6  1022.9  1.3  693  271           
03 25.04.17 170 (Ю) 20000 м    8/8 600 м 
[Sc]
+8.2 +4.3 76 +8  1022.5  0.3  693  270           
06 25.04.17 210 (ЮЗ) 20000 м    10/10 600 м 
[Sc]
+9.6 +1.9 59 +11  1024.1  1.6  694  270           
09 25.04.17 240 (ЮЗ) 20000 м    10/10 600 м 
[Sc]
+9.8 +5 72 +10  1025.2  1.1  695  269           
12 25.04.17 270 (З) 20000 м    10/10 600 м 
[Sc]
+9.5 +3 64 +11  1025.4  0.2  695  270           
15 25.04.17 230 (ЮЗ) 20000 м    10/10 600 м 
[Sc]
+8.6 +4 73 +7  1026.9  0.1  696  271           
18 25.04.17 350 (С) 10 км  дождь  10/10 300 м 
[Ns]
+4 +2 87 +2  1032.2  2.9  698  277    +10.1       
21 25.04.17 340 (С) 6-15{17}  20000 м  {дождь}  10/10 600 м 
[Sc]
+6.1 -6.4 40 +4  1032.4  1.1  699  276           
00 26.04.17 310 (СЗ) 20000 м    10/10 600 м 
[Sc]
+5.7 -3.4 52 +3  1032.8  0.4  699  276           
03 26.04.17 270 (З) 4000 м  дымка  10/10 600 м 
[Sc]
+5 +3.6 91 +6  1034.7  1.4  700  276         
06 26.04.17 230 (ЮЗ) 20000 м    10/10 600 м 
[Sc]
+5.3 +1.8 78 +4  1037.5  2.8  702  277           
09 26.04.17 230 (ЮЗ) 20000 м    10/10 600 м 
[Sc]
+6.5 +2.1 73 +6  1038.2  0.9  703  276           
12 26.04.17 250 (З) 20000 м    10/10 600 м 
[Sc]
+7.4 +1.5 66 +7  1036.4  -1.3  702  275           
15 26.04.17 240 (ЮЗ) 20000 м    8/8 600 м 
[Sc]
+7.8 +1.1 63 +9  1036.2  -0.2  702  275           
18 26.04.17 250 (З) 20000 м    4/0 верхняя 
[Ci fib]
+5.7 +0.3 68 +7  1037.5  0.6  702  277    +8.3       
21 26.04.17 250 (З) 20000 м    ясно 
+4.5 +0 73 +3  1037.5  702  278           
00 27.04.17 280 (З) 20000 м    ясно 
+4.7 +0.8 76 +3  1036.7  -0.8  702  278           
03 27.04.17 230 (ЮЗ) 20000 м    ясно 
+5 +0 70 +5  1036.2  -0.5  701  277           
Время (UTC), дата Ветер
(°,м/с) 
Видим.   Явления Облачность Т
(°С)
Тd
(°С)
f(%) Тe
(°С)
Pmin
(гПа)
dP
(гПа)
Po
(мм)
O2
(г/м3)
Тmin Tmax R s Состояние
почвы

Для получения пояснительной информации подведите курсор к названию столбца.

ПОГОДА Шамахы - архив

Всё, что Вы хотите узнать о погоде Шамахы - удобно и подробно!

Выберите нужную дату (начиная с 1 января 2015* года) и нажмите кнопку "Найти".
Будут отображены архивные сводки погоды по пункту Шамахы, начиная с указанной даты.


Отображать данные в формате CSV (для использования в таблицах Excel)


Внимание! Наш архив погоды предназначен исключительно для личного некоммерческого использования в познавательных целях. Если Вам необходимы официальные справки о состоянии погоды (для производственных, юридических, коммерческих и т.п. целей), обращайтесь в органы Росгидромета.

*Примечание: данная дата относится к архиву по метеостанциям СССР (Россия, СНГ, Балтия).
Архив по метеостанциям Зарубежной Европы и Азии (кроме Китая) хранится 10 дней, по другим регионам земного шара (Китай, Африка, Америка, Австралия, Океания) - 1 день.

Шамахы - район местоположения метеостанции


Название, широта, долгота, высота метеостанции:
Шамахы 40.6°ш. 48.6°д. 749 м над ур. моря [Азербайджан]

Дополнительная информация

В oтличие oт бoльшинства пoгoдных сайтoв мы публикуем пoдрoбную метеoинфoрмацию в детальнoм прoфессиoнальнoм фoрмате.

Характеристики температуры и влажнoсти вoздуха измеряются на высoте 2 м в тени вдали oт зданий и деревьев.
Скoрoсть ветра измеряется на высoте 10 м (на урoвне рoста челoвека скoрoсть ветра ниже в 1.5-2 раза). Если метеoстанция нахoдится в гoрoде или в лесу, тo скoрoсть ветра занижена на 2-4 м/с пo сравнению с oткрытым местoм. Скoрoсть ветра над акватoриями крупных рек и oзёр, а также на вершинах хoлмoв на 2-5 м/с выше, чем в oбычных услoвиях.
Атмoсфернoе давление в разных тoчках местнoсти мoжет значительнo oтличаться oт давления на метеoстанции, в зависимoсти oт услoвий рельефа (при пoдъёме на 10 м давление пoнижается примернo на 1 мм рт.ст.).